STARLINK-1641, 46174

Orbit data source: Space-Track

STARLINK-1641, 46174 is a payload satellite owned by SpaceX/Seattle (US) in LEO that was launched on Tue, 18 Aug 2020 UTC via an FALCON 9 launch vehicle from the Air Force Eastern Test Range (AFETR). Payload-class satellites include a variety of spacecraft equipped with specific instruments for various scientific and technological missions. These include communications satellites like Starlink; space stations such as the ISS; scientific satellites like the Hubble; Earth observation satellites from companies like Planet Labs, Umbra, and HawkEye 360; GPS; miniature CubeSats for education and research; and military/defense satellites.

Loading next visibility...
Identifier
46174, 2020-057BK
Orbit
LEO
Country
Flag of USUS
Related business
Manufacturer
SpaceX/Seattle
Mission
Partially operational Commercial Communications
Bus & Motor
STARLINK, Unknown motor
Mass
260 kg wet, ~248 kg dry
Launch date (UTC)
2020-08-18 (6 years ago)
Launch vehicle
FALCON 9
Launch site
Air Force Eastern Test Range (AFETR)
Object type
Payload
Rocket body
Debris
Shape & HBR
Box + 1 Pan, 10.1 m
Radar Cross Section
13.562 m², Large (>1 m²)

Expand to show TLE details & history
Last TLE update: 2 days ago

TLE from 2 days ago
0 STARLINK-1641
1 46174U 20057BK  26171.31281089  .00058623  00000-0  60727-3 0  9994
2 46174  53.0457 148.3021 0001240  81.1569 278.9586 15.64151473322485
Epoch: 2026-06-20T07:30Z
TLE epoch observation values (Epoch: 2026-06-20T07:30:26.860Z)
Latitude
0.00001°
Longitude
127.16096°
Altitude
376.45 km
Speed
7.685 km/s
True Right ascension
09h 53m 12s
True Declination
0° 00' 00"
Sunlit
Object was in daylight at epoch
Visualization orbit readout
Latitude
Unknown
Longitude
Unknown
Altitude
Unknown
Speed
Unknown
Apparent Right ascension
Unknown
Apparent Declination
Unknown
Sunlit
N/A
Visualization observer readout
Local Sidereal Time
21:37:43
Azimuth
Unknown
Elevation
Unknown
Doppler factor
Unknown
Orbital elements
Apogee altitude
376.797 km
Perigee altitude
375.122 km
Semi-major axis
6,754.096 km
Eccentricity
0.00012
Inclination
53.0457°
RAAN
148.3021°
Arg. of periapsis
81.1569°
True anomaly
278.94456°
Mean anomaly
278.9586°
Eccentric anomaly
278.95158°
Mean motion
3.91014 °/min
Orbital period
92.07 mins
BSTAR
0.00060727
Loading maneuver chart data...
Computing Atmospheric mass density...

Documentation

Showing up to 5 results
|